{"data":{"norad_id":57813,"epoch":"2026-09-20T21:45:06.926688Z","epoch_age_seconds":99423,"freshness":"FRESH","line1":"1 57813U 23138F   26263.90633017 -.00000290  00000+0 -10130-5 0  9991","line2":"2 57813  43.0024 211.7522 0000724 287.0361  73.0411 15.27574031168498","mean_motion":15.27574031,"eccentricity":7.24e-5,"inclination_deg":43.0024,"raan_deg":211.7522,"arg_perigee_deg":287.0361,"mean_anomaly_deg":73.0411,"bstar":-1.013e-6,"rev_number":16849,"period_min":94.267117061248,"perigee_km":482.5702182638,"apogee_km":483.56372059858,"semimajor_km":6861.2039694312,"source":"CELESTRAK","updated_at":"2026-09-21T09:00:33.707543Z"}}